KI0MQ Weather Reports


Display with metric or nautical units.
time (UTC)temp
F
wind
direction
speed
MPH
gust
MPH
rain 1hr
in
rain 24hr
in
rain mn
in
humidity
%
barometer
mb
20260504021508 63 0 0.0 0.0 0.00 0.00 0.00 55 1007.1
20260504021005 63 0 0.0 0.0 0.00 0.00 0.00 55 1007.2
20260504020503 64 0 0.0 0.0 0.00 0.00 0.00 55 1007.2
20260504020008 64 0 0.0 0.0 0.00 0.00 0.00 54 1007.3
20260504015503 64 0 0.0 0.0 0.00 0.00 0.00 53 1007.4
20260504015003 65 0 0.0 0.0 0.00 0.00 0.00 52 1007.4
20260504014508 66 0 0.0 0.0 0.00 0.00 0.00 51 1007.4
20260504013503 67 0 0.0 0.0 0.00 0.00 0.00 49 1007.4
20260504013008 68 0 0.0 0.0 0.00 0.00 0.00 47 1007.4
20260504012504 68 0 0.0 0.0 0.00 0.00 0.00 47 1007.4
20260504012003 69 0 0.0 0.0 0.00 0.00 0.00 46 1007.3
20260504011508 70 0 0.0 0.0 0.00 0.00 0.00 44 1007.3
20260504011003 70 0 0.0 0.0 0.00 0.00 0.00 44 1007.4
20260504010503 71 184 0.0 1.0 0.00 0.00 0.00 42 1007.4
20260504010008 71 185 0.0 2.0 0.00 0.00 0.00 41 1007.5
20260504005505 72 182 0.0 2.0 0.00 0.00 0.00 41 1007.5
20260504005004 72 170 0.0 2.0 0.00 0.00 0.00 40 1007.6
20260504004508 73 171 0.0 2.0 0.00 0.00 0.00 39 1007.6
20260504004003 73 171 1.0 2.0 0.00 0.00 0.00 38 1007.7
20260504003503 74 215 1.0 2.0 0.00 0.00 0.00 37 1007.7
20260504003008 74 266 1.0 2.0 0.00 0.00 0.00 37 1007.7
20260504002503 75 271 1.0 2.0 0.00 0.00 0.00 36 1007.7
20260504002004 75 272 0.0 2.0 0.00 0.00 0.00 35 1007.7
20260504001507 75 273 0.0 1.0 0.00 0.00 0.00 35 1007.8
20260504000504 76 284 1.0 3.0 0.00 0.00 0.00 34 1007.9
20260504000008 76 289 0.0 3.0 0.00 0.00 0.00 34 1007.9
20260503235503 76 337 0.0 2.0 0.00 0.00 0.00 36 1007.9
20260503235003 76 339 0.0 2.0 0.00 0.00 0.00 36 1007.9
20260503234508 76 335 0.0 2.0 0.00 0.00 0.00 35 1007.9
20260503234003 76 344 1.0 2.0 0.00 0.00 0.00 36 1008.0
20260503233503 75 339 1.0 3.0 0.00 0.00 0.00 35 1008.0
20260503233008 75 307 1.0 3.0 0.00 0.00 0.00 36 1008.0
20260503232503 75 238 1.0 3.0 0.00 0.00 0.00 38 1008.0
20260503232004 75 216 1.0 3.0 0.00 0.00 0.00 36 1008.1
20260503231507 75 221 1.0 3.0 0.00 0.00 0.00 37 1008.1
20260503231004 75 217 0.0 2.0 0.00 0.00 0.00 37 1008.2
20260503230504 75 193 0.0 2.0 0.00 0.00 0.00 39 1008.2
20260503230009 75 339 1.0 3.0 0.00 0.00 0.00 36 1008.2
20260503225003 75 323 2.0 5.0 0.00 0.00 0.00 35 1008.3
20260503223503 75 307 1.0 5.0 0.00 0.00 0.00 36 1008.2
20260503222504 75 248 1.0 4.0 0.00 0.00 0.00 36 1008.4
20260503221507 75 261 1.0 4.0 0.00 0.00 0.00 35 1008.4
20260503220504 75 243 1.0 3.0 0.00 0.00 0.00 39 1008.5
20260503215503 75 239 2.0 5.0 0.00 0.00 0.00 35 1008.4
20260503215004 75 231 2.0 5.0 0.00 0.00 0.00 38 1008.4
20260503214507 75 231 2.0 5.0 0.00 0.00 0.00 38 1008.5
20260503214005 75 226 1.0 5.0 0.00 0.00 0.00 36 1008.7
20260503213503 76 224 1.0 3.0 0.00 0.00 0.00 36 1008.8
20260503213008 75 267 1.0 4.0 0.00 0.00 0.00 38 1008.9
20260503212504 75 314 2.0 4.0 0.00 0.00 0.00 37 1008.9
20260503212004 74 311 3.0 6.0 0.00 0.00 0.00 34 1009.0
20260503211507 75 324 2.0 6.0 0.00 0.00 0.00 34 1009.0
20260503211003 75 345 2.0 6.0 0.00 0.00 0.00 34 1009.1
20260503210504 76 309 1.0 6.0 0.00 0.00 0.00 35 1009.2
20260503210007 75 347 1.0 5.0 0.00 0.00 0.00 38 1009.4
20260503205503 75 20 2.0 7.0 0.00 0.00 0.00 34 1009.4
20260503204508 76 279 1.0 4.0 0.00 0.00 0.00 35 1009.5
20260503204003 75 287 1.0 4.0 0.00 0.00 0.00 34 1009.6
20260503203503 76 18 2.0 6.0 0.00 0.00 0.00 35 1009.7
20260503203007 76 22 1.0 6.0 0.00 0.00 0.00 34 1009.7
20260503202504 75 25 1.0 5.0 0.00 0.00 0.00 35 1009.7
20260503202004 75 352 2.0 9.0 0.00 0.00 0.00 37 1009.8
20260503201507 74 335 3.0 9.0 0.00 0.00 0.00 34 1010.0
20260503201003 74 345 4.0 9.0 0.00 0.00 0.00 35 1010.0
20260503200504 74 354 4.0 10.0 0.00 0.00 0.00 35 1010.1
20260503200007 74 343 4.0 10.0 0.00 0.00 0.00 35 1010.1
20260503195504 74 323 2.0 9.0 0.00 0.00 0.00 35 1010.2
20260503194507 74 15 2.0 5.0 0.00 0.00 0.00 38 1010.2
20260503194003 74 6 1.0 5.0 0.00 0.00 0.00 36 1010.2
20260503193504 74 312 1.0 6.0 0.00 0.00 0.00 36 1010.3
20260503192504 73 346 3.0 9.0 0.00 0.00 0.00 35 1010.4
20260503192003 73 345 3.0 9.0 0.00 0.00 0.00 35 1010.4
20260503191508 74 336 3.0 10.0 0.00 0.00 0.00 36 1010.5
20260503191003 73 331 4.0 11.0 0.00 0.00 0.00 36 1010.5
20260503190503 74 349 4.0 13.0 0.00 0.00 0.00 36 1010.6
20260503190008 74 7 4.0 13.0 0.00 0.00 0.00 35 1010.6
20260503185503 74 13 3.0 8.0 0.00 0.00 0.00 35 1010.6
20260503185004 73 19 4.0 14.0 0.00 0.00 0.00 36 1010.5
20260503184507 73 12 4.0 14.0 0.00 0.00 0.00 36 1010.7
20260503184004 74 15 3.0 10.0 0.00 0.00 0.00 37 1010.6
20260503183008 73 22 2.0 9.0 0.00 0.00 0.00 37 1010.7
20260503182503 73 24 2.0 8.0 0.00 0.00 0.00 37 1010.7
20260503182003 73 1 2.0 7.0 0.00 0.00 0.00 38 1010.9
20260503180503 73 12 2.0 13.0 0.00 0.00 0.00 38 1011.2
20260503180007 73 10 2.0 7.0 0.00 0.00 0.00 40 1011.2
20260503175503 72 346 2.0 8.0 0.00 0.00 0.00 39 1011.3
20260503175003 72 347 2.0 9.0 0.00 0.00 0.00 38 1011.3
20260503174507 72 11 2.0 9.0 0.00 0.00 0.00 39 1011.4
20260503174004 71 15 3.0 8.0 0.00 0.00 0.00 38 1011.3
20260503173503 70 22 3.0 8.0 0.00 0.00 0.00 38 1011.4
20260503173007 71 25 3.0 8.0 0.00 0.00 0.00 36 1011.4
20260503172504 71 18 3.0 11.0 0.00 0.00 0.00 38 1011.4
20260503172003 71 10 4.0 11.0 0.00 0.00 0.00 39 1011.5
20260503171003 70 352 4.0 12.0 0.00 0.00 0.00 37 1011.5
20260503170504 70 356 4.0 12.0 0.00 0.00 0.00 38 1011.5
20260503151003 62 332 2.0 6.0 0.00 0.00 0.00 54 1011.5
20260503150503 62 338 3.0 6.0 0.00 0.00 0.00 54 1011.5
20260503131004 56 240 1.0 3.0 0.00 0.00 0.00 58 1010.6
20260503130503 56 239 1.0 3.0 0.00 0.00 0.00 57 1010.5
20260503110504 53 217 0.0 1.0 0.00 0.00 0.00 58 1010.5
20260503090503 57 233 2.0 6.0 0.00 0.00 0.00 49 1009.9
20260503081507 56 198 1.0 6.0 0.00 0.00 0.00 49 1010.3
20260503080503 56 203 1.0 5.0 0.00 0.00 0.00 49 1010.5
20260503072503 56 196 2.0 5.0 0.00 0.00 0.00 48 1010.7
20260503072003 56 192 1.0 4.0 0.00 0.00 0.00 48 1010.7
20260503071508 56 190 1.0 4.0 0.00 0.00 0.00 48 1010.8
20260503070504 56 197 2.0 4.0 0.00 0.00 0.00 47 1010.8
20260503055003 58 199 3.0 8.0 0.00 0.00 0.00 45 1011.8
20260503054508 58 195 3.0 8.0 0.00 0.00 0.00 44 1011.7
20260503054003 58 198 2.0 10.0 0.00 0.00 0.00 44 1011.7
20260503053504 58 202 3.0 10.0 0.00 0.00 0.00 45 1011.8
20260503053008 58 201 2.0 5.0 0.00 0.00 0.00 45 1011.9
20260503052504 58 200 3.0 6.0 0.00 0.00 0.00 45 1011.8
20260503052003 58 205 3.0 6.0 0.00 0.00 0.00 45 1011.8
20260503050503 57 199 3.0 8.0 0.00 0.00 0.00 46 1011.8
20260503050010 57 197 2.0 8.0 0.00 0.00 0.00 46 1011.9
20260503045504 57 200 2.0 8.0 0.00 0.00 0.00 46 1012.0
20260503045004 57 197 3.0 8.0 0.00 0.00 0.00 47 1012.0
20260503044003 57 197 3.0 6.0 0.00 0.00 0.00 46 1012.1
20260503043008 57 196 3.0 8.0 0.00 0.00 0.00 45 1012.2
20260503042504 57 199 3.0 6.0 0.00 0.00 0.00 46 1012.3
20260503042004 57 201 2.0 6.0 0.00 0.00 0.00 45 1012.5
20260503041508 58 203 2.0 6.0 0.00 0.00 0.00 45 1012.5
20260503041004 58 200 2.0 5.0 0.00 0.00 0.00 44 1012.5
20260503040503 58 197 2.0 5.0 0.00 0.00 0.00 44 1012.6
20260503040008 58 197 2.0 5.0 0.00 0.00 0.00 44 1012.7
20260503035503 58 200 3.0 6.0 0.00 0.00 0.00 43 1012.7
20260503034508 59 194 3.0 6.0 0.00 0.00 0.00 42 1012.7
20260503033503 60 198 3.0 7.0 0.00 0.00 0.00 42 1012.8
20260503032504 60 201 3.0 8.0 0.00 0.00 0.00 41 1012.9
20260503031508 60 196 3.0 7.0 0.00 0.00 0.00 42 1013.1
20260503030504 60 200 3.0 6.0 0.00 0.00 0.00 41 1013.2
20260503025504 60 195 2.0 5.0 0.00 0.00 0.00 42 1013.2
20260503025004 59 182 1.0 5.0 0.00 0.00 0.00 43 1013.2
20260503024509 59 188 1.0 5.0 0.00 0.00 0.00 43 1013.3
20260503024003 59 201 1.0 3.0 0.00 0.00 0.00 44 1013.4
20260503023503 59 206 1.0 3.0 0.00 0.00 0.00 44 1013.4
20260503022503 59 207 0.0 2.0 0.00 0.00 0.00 43 1013.5